1510657201.13,43716,8.56,73306.5,9.41,-40.03,-41.17,0,*72
1510657202.38,43717,8.56,73312.3,9.41,-39.41,-40.35,0,*7A
1510657203.62,43718,8.56,73308.5,9.41,-38.97,-39.97,0,*79
1510657204.83,43719,8.56,73306.8,9.43,-40.15,-41.17,0,*78
1510657206.07,43720,8.56,73306.3,9.43,-39.91,-40.59,0,*7B
1510657207.32,43721,8.56,73306.8,9.43,-39.29,-40.29,0,*7E
1510657208.57,43722,8.56,73308.5,9.43,-39.41,-40.29,0,*73
1510657209.81,43723,8.56,73304.8,9.45,-38.73,-39.53,0,*77
1510657211.05,43724,8.56,73308.0,9.47,-38.11,-38.91,0,*79
1510657212.25,43725,8.56,73310.3,9.47,-38.85,-39.65,0,*7F
1510657213.49,43726,8.56,73308.3,9.49,-38.17,-38.91,0,*73
1510657214.73,43727,8.56,73304.3,9.53,-38.43,-39.41,0,*74
1510657215.94,43728,8.56,73308.3,9.55,-38.55,-39.41,0,*7A
1510657217.16,43729,8.56,73306.0,9.57,-38.35,-39.09,0,*73
1510657218.43,43730,8.56,73310.8,9.57,-38.79,-39.53,0,*7C
1510657219.67,43731,8.5,73304.0,9.61,-38.11,-38.85,0,*7C
1510657220.92,43732,8.56,73310.0,9.61,-38.11,-38.97,0,*7C
1510657222.19,43733,8.56,73306.5,9.61,-38.79,-39.79,0,*72
1510657223.47,43734,8.56,73308.3,9.65,-39.03,-39.97,0,*7D
1510657224.69,43735,8.56,73306.8,9.63,-38.29,-39.09,0,*74
1510657225.95,43736,8.56,73308.5,9.65,-38.23,-39.03,0,*71
1510657227.19,43737,8.56,73306.3,9.65,-38.35,-39.23,0,*75
1510657228.38,43738,8.5,73304.3,9.67,-38.55,-39.47,0,*7C
1510657229.6,43739,8.56,73304.8,9.69,-39.65,-40.47,0,*7F
1510657230.86,43740,8.5,73304.3,9.69,-39.71,-40.73,0,*73
1510657232.08,43741,8.56,73310.5,9.69,-39.35,-40.15,0,*72
1510657233.32,43742,8.56,73304.5,9.69,-40.53,-41.55,0,*7A
1510657234.56,43743,8.56,73308.3,9.69,-39.47,-40.29,0,*7A
1510657235.81,43744,8.56,73308.5,9.71,-39.23,-39.97,0,*7D
1510657237.08,43745,8.56,73304.8,9.73,-38.29,-39.23,0,*7A
1510657238.35,43746,8.5,73306.8,9.73,-38.29,-39.29,0,*73
1510657239.57,43747,8.56,73310.8,9.73,-39.09,-40.03,0,*77
1510657240.83,43748,8.56,73310.0,9.77,-39.59,-40.53,0,*7C
1510657242.02,43749,8.56,73306.3,9.79,-38.97,-39.91,0,*70
1510657243.21,43750,8.56,73306.0,9.79,-38.35,-39.35,0,*7E
1510657244.45,43751,8.56,73310.5,9.79,-38.91,-39.71,0,*71
1510657245.73,43752,8.56,73304.8,9.81,-39.15,-40.09,0,*79
1510657246.97,43753,8.56,73304.3,9.81,-38.11,-38.97,0,*75
1510657248.2,43754,8.56,73304.5,9.83,-37.75,-38.49,0,*7E
1510657249.44,43755,8.56,73304.0,9.83,-38.23,-39.03,0,*7C
1510657250.65,43756,8.56,73310.8,9.87,-38.61,-39.41,0,*7B
1510657251.87,43757,8.56,73308.0,9.87,-39.53,-40.35,0,*77
1510657253.12,43758,8.5,73304.8,9.87,-39.03,-39.97,0,*7B
1510657254.36,43759,8.56,73306.8,9.87,-38.23,-39.15,0,*73
1510657255.6,43760,8.56,73304.3,9.89,-38.11,-38.97,0,*7D
1510657256.85,43761,8.56,73308.3,9.91,-38.11,-38.91,0,*73
1510657258.07,43762,8.56,73308.8,9.91,-37.99,-38.97,0,*79
1510657259.31,43763,8.5,73306.3,9.93,-38.05,-39.03,0,*7C
1510657260.56,43764,8.56,73306.5,9.93,-37.87,-38.67,0,*7D
1510657261.8,43765,8.56,73308.0,9.99,-37.69,-38.67,0,*76
1510657263.03,43766,8.56,73308.3,9.99,-37.87,-38.79,0,*7A
1510657264.28,43767,8.56,73308.8,10.01,-37.63,-38.43,0,*41
1510657265.53,43768,8.56,73308.5,10.01,-37.81,-38.61,0,*42
1510657266.79,43769,8.56,73308.0,10.05,-38.29,-38.91,0,*45
1510657268.0,43770,8.56,73306.3,10.05,-37.75,-38.55,0,*43
1510657269.22,43771,8.56,73308.0,10.05,-38.85,-39.65,0,*40
1510657270.46,43772,8.56,73304.3,10.05,-39.91,-40.85,0,*47
1510657271.72,43773,8.56,73308.0,10.07,-39.79,-40.35,0,*49
1510657272.96,43774,8.56,73306.8,10.05,-37.87,-38.79,0,*44
1510657274.21,43775,8.56,73308.0,10.09,-39.29,-39.97,0,*42
1510657275.47,43776,8.56,73308.0,10.07,-39.15,-40.03,0,*43
1510657276.72,43777,8.56,73304.8,10.09,-39.29,-40.09,0,*49
1510657277.97,43778,8.56,73308.5,10.09,-38.79,-39.41,0,*40
1510657279.19,43779,8.56,73308.0,10.09,-38.35,-39.15,0,*48
1510657280.41,43780,8.56,73306.3,10.13,-38.35,-39.23,0,*40
1510657281.63,43781,8.5,73306.0,10.13,-38.35,-39.03,0,*43
1510657282.82,43782,8.56,73310.5,10.13,-38.55,-39.35,0,*43
1510657284.04,43783,8.5,73304.8,10.13,-38.55,-39.29,0,*4F
1510657285.24,43784,8.56,73310.3,10.17,-38.55,-39.35,0,*41
1510657286.49,43785,8.56,73306.8,10.15,-40.21,-40.91,0,*4E
1510657287.74,43786,8.56,73306.5,10.15,-39.23,-40.03,0,*4A
1510657288.97,43787,8.56,73304.5,10.17,-38.85,-39.59,0,*45
1510657290.23,43788,8.56,73304.3,10.15,-39.47,-40.21,0,*46
1510657291.42,43789,8.56,73306.5,10.17,-38.61,-39.47,0,*4E
1510657292.64,43790,8.56,73306.5,10.17,-38.61,-39.29,0,*4E
1510657293.89,43791,8.5,73304.3,10.17,-38.67,-39.41,0,*47
1510657295.12,43792,8.5,73304.5,10.21,-39.59,-40.47,0,*45
1510657296.37,43793,8.56,73306.0,10.21,-39.97,-40.79,0,*4B
1510657297.62,43794,8.56,73306.5,10.23,-39.41,-40.35,0,*4D
1510657298.84,43795,8.5,73304.5,10.21,-40.59,-41.17,0,*48
1510657300.03,43796,8.56,73310.5,10.21,-40.73,-41.49,0,*48
1510657301.26,43797,8.56,73308.5,10.21,-40.73,-41.67,0,*45
1510657302.51,43798,8.56,73310.3,10.17,-40.59,-41.23,0,*47
1510657303.76,43799,8.5,73306.8,10.17,-40.21,-40.97,0,*47
1510657304.99,43800,8.56,73310.3,10.17,-40.53,-41.35,0,*44
1510657306.24,43801,8.56,73306.3,10.15,-40.59,-41.29,0,*40
1510657307.45,43802,8.56,73306.3,10.17,-39.65,-40.53,0,*4C
1510657308.67,43803,8.5,73306.8,10.17,-39.29,-40.03,0,*40
1510657309.92,43804,8.56,73308.0,10.17,-39.59,-40.21,0,*40
1510657311.2,43805,8.5,73304.8,10.23,-38.79,-39.53,0,*4E
1510657312.42,43806,8.5,73306.5,10.23,-38.35,-39.09,0,*4A
1510657313.69,43807,8.5,73302.0,10.23,-38.23,-38.91,0,*4C
1510657314.91,43808,8.5,73304.8,10.25,-38.11,-38.85,0,*41
1510657316.19,43809,8.56,73308.3,10.27,-38.49,-39.15,0,*47
1510657317.44,43810,8.5,73306.5,10.27,-38.17,-39.03,0,*43
1510657318.69,43811,8.56,73310.5,10.27,-38.35,-39.15,0,*45
1510657319.97,43812,8.5,73304.8,10.31,-38.79,-39.59,0,*41
1510657321.2,43813,8.5,73304.3,10.29,-39.09,-39.97,0,*4D
1510657322.45,43814,8.5,73304.5,10.31,-38.61,-39.53,0,*44
1510657323.68,43815,8.5,73304.0,10.29,-39.09,-39.97,0,*4B
1510657324.93,43816,8.5,73308.0,10.31,-39.41,-40.15,0,*49
1510657326.19,43817,8.5,73306.8,10.31,-37.81,-38.43,0,*46
1510657327.41,43818,8.5,73304.8,10.33,-38.55,-39.23,0,*4A
1510657328.63,43819,8.5,73304.0,10.33,-38.55,-39.29,0,*41
1510657329.86,43820,8.5,73304.5,10.33,-39.15,-39.85,0,*48
1510657331.11,43821,8.5,73306.3,10.35,-39.47,-40.21,0,*48
1510657332.35,43822,8.56,73308.3,10.35,-39.29,-40.03,0,*43
1510657333.6,43823,8.5,73306.5,10.35,-39.15,-40.03,0,*4D
1510657334.88,43824,8.5,73308.8,10.37,-39.23,-39.97,0,*4E
1510657336.16,43825,8.56,73310.0,10.37,-37.93,-38.79,0,*4B
1510657337.41,43826,8.5,73306.8,10.39,-39.03,-39.97,0,*40
1510657338.62,43827,8.56,73310.8,10.39,-39.65,-40.47,0,*42
1510657339.86,43828,8.56,73310.3,10.39,-38.79,-39.65,0,*4F
1510657341.1,43829,8.5,73304.3,10.41,-37.99,-38.73,0,*46
1510657342.35,43830,8.5,73306.8,10.41,-38.61,-39.23,0,*42
1510657343.62,43831,8.5,73308.5,10.45,-38.11,-38.79,0,*4E
1510657344.89,43832,8.5,73308.5,10.45,-37.93,-38.67,0,*47
1510657346.15,43833,8.5,73306.5,10.47,-37.81,-38.49,0,*4B
1510657347.38,43834,8.5,73306.3,10.47,-38.17,-38.79,0,*4F
1510657348.61,43835,8.5,73304.8,10.51,-37.75,-38.49,0,*41
1510657349.81,43836,8.5,73304.5,10.51,-37.45,-38.05,0,*49
1510657351.01,43837,8.56,73310.3,10.51,-38.05,-38.85,0,*4B
1510657352.28,43838,8.5,73310.0,10.53,-38.79,-39.53,0,*47
1510657353.5,43839,8.5,73306.8,10.53,-38.05,-38.97,0,*44
1510657354.72,43840,8.5,73304.0,10.55,-37.75,-38.49,0,*47
1510657356.0,43841,8.5,73306.8,10.57,-37.63,-38.29,0,*45
1510657357.25,43842,8.5,73306.8,10.57,-37.63,-38.35,0,*4B
1510657358.52,43843,8.5,73306.0,10.57,-38.11,-38.91,0,*4E
1510657359.75,43844,8.5,73310.0,10.59,-39.23,-40.03,0,*43
1510657361.02,43845,8.5,73306.3,10.61,-38.49,-39.41,0,*4C
1510657362.27,43846,8.5,73306.5,10.59,-38.49,-39.23,0,*40
1510657363.53,43847,8.5,73304.5,10.61,-38.67,-39.53,0,*41
1510657364.77,43848,8.5,73306.8,10.61,-38.43,-39.03,0,*4D
1510657365.99,43849,8.5,73308.0,10.63,-38.61,-39.41,0,*48
1510657367.21,43850,8.5,73306.3,10.63,-38.79,-39.35,0,*4A
1510657368.46,43851,8.5,73304.3,10.67,-37.81,-38.67,0,*41
1510657369.71,43852,8.5,73304.0,10.63,-38.23,-38.79,0,*4E
1510657370.96,43853,8.5,73308.5,10.69,-37.69,-38.49,0,*47
1510657372.17,43854,8.5,73308.3,10.69,-37.87,-38.55,0,*4D
1510657373.4,43855,8.5,73308.8,10.71,-37.75,-38.55,0,*48
1510657374.64,43856,8.5,73304.5,10.71,-38.67,-39.47,0,*45
1510657375.89,43857,8.5,73306.5,10.71,-39.03,-39.85,0,*49
1510657377.14,43858,8.5,73310.3,10.71,-39.91,-40.79,0,*40
1510657378.39,43859,8.5,73310.3,10.71,-41.23,-42.25,0,*4C
1510657379.65,43860,8.5,73308.5,10.71,-42.25,-43.21,0,*46
1510657380.87,43861,8.5,73306.5,10.69,-42.25,-43.29,0,*46
1510657382.07,43862,8.5,73306.3,10.63,-40.73,-41.49,0,*4A
1510657383.27,43863,8.5,73310.3,10.63,-41.41,-42.37,0,*41
1510657384.47,43864,8.5,73306.0,10.63,-40.91,-41.41,0,*48
1510657385.72,43865,8.5,73306.3,10.63,-40.59,-41.55,0,*48
1510657386.99,43866,8.5,73310.0,10.61,-41.55,-42.45,0,*46
1510657388.21,43867,8.5,73308.8,10.61,-39.35,-40.03,0,*4E
1510657389.49,43868,8.5,73310.8,10.61,-39.71,-40.41,0,*47
1510657390.72,43869,8.5,73308.3,10.63,-38.85,-39.71,0,*43
1510657391.99,43870,8.5,73308.0,10.61,-39.41,-40.21,0,*4B
1510657393.24,43871,8.5,73308.0,10.61,-40.41,-41.41,0,*43
1510657394.49,43872,8.5,73304.8,10.61,-39.97,-40.91,0,*49
1510657395.74,43873,8.5,73308.8,10.61,-38.97,-39.79,0,*41
1510657396.96,43874,8.5,73304.5,10.61,-41.03,-42.13,0,*45
1510657398.16,43875,8.5,73308.5,10.59,-40.47,-41.29,0,*44
1510657399.44,43876,8.5,73306.0,10.61,-39.79,-40.41,0,*40
1510657400.68,43877,8.5,73310.5,10.61,-38.61,-39.41,0,*47
1510657401.93,43878,8.5,73306.0,10.67,-39.15,-39.97,0,*47
1510657403.18,43879,8.5,73308.5,10.63,-39.53,-40.21,0,*43
1510657404.41,43880,8.5,73306.3,10.67,-38.79,-39.65,0,*46
1510657405.61,43881,8.5,73308.3,10.67,-39.47,-40.15,0,*42
1510657406.84,43882,8.5,73308.5,10.63,-39.85,-40.41,0,*4A
1510657408.06,43883,8.5,73306.0,10.63,-38.97,-39.97,0,*4C
1510657409.29,43884,8.5,73310.5,10.67,-37.81,-38.61,0,*4F
1510657410.52,43885,8.5,73308.8,10.69,-38.29,-39.09,0,*42
1510657411.79,43886,8.5,73310.3,10.71,-38.49,-39.23,0,*46
1510657413.05,43887,8.5,73306.3,10.71,-39.47,-40.09,0,*4E
1510657414.31,43888,8.5,73308.0,10.71,-40.09,-41.11,0,*4D
1510657415.53,43889,8.5,73310.8,10.69,-40.59,-41.49,0,*4D
1510657416.79,43890,8.5,73308.0,10.71,-40.03,-40.85,0,*42
1510657418.01,43891,8.5,73306.5,10.69,-39.47,-40.29,0,*42
1510657419.24,43892,8.5,73308.5,10.69,-39.03,-39.65,0,*47
1510657420.49,43893,8.5,73308.8,10.71,-39.47,-40.29,0,*49
1510657421.75,43894,8.5,73304.8,10.71,-39.47,-40.41,0,*40
1510657423.0,43895,8.5,73308.0,10.71,-39.29,-40.03,0,*4F
1510657424.26,43896,8.5,73306.3,10.71,-40.09,-41.11,0,*42
1510657425.5,43897,8.5,73310.8,10.69,-41.23,-42.05,0,*45
1510657426.73,43898,8.5,73304.0,10.69,-41.11,-42.19,0,*46
1510657427.93,43899,8.5,73308.5,10.69,-40.91,-41.87,0,*4A
1510657429.18,43900,8.5,73306.8,10.71,-40.21,-41.11,0,*46
1510657430.43,43901,8.5,73310.0,10.69,-39.41,-40.21,0,*44
1510657431.68,43902,8.5,73310.3,10.69,-38.91,-39.41,0,*43
1510657432.88,43903,8.5,73304.5,10.69,-39.09,-40.03,0,*4A
1510657434.13,43904,8.5,73308.8,10.71,-39.29,-39.91,0,*43
1510657435.34,43905,8.5,73308.8,10.71,-38.73,-39.47,0,*47
1510657436.59,43906,8.5,73308.5,10.73,-39.41,-40.21,0,*48
1510657437.79,43907,8.5,73306.5,10.73,-39.85,-40.73,0,*46
1510657439.02,43908,8.5,73304.5,10.73,-39.41,-40.15,0,*41
1510657440.27,43909,8.5,73306.0,10.75,-39.85,-40.79,0,*44
1510657441.53,43910,8.5,73304.8,10.75,-40.97,-41.81,0,*47
1510657442.78,43911,8.5,73304.5,10.73,-39.53,-40.21,0,*4D
1510657444.04,43912,8.5,73306.5,10.73,-39.79,-40.59,0,*49
1510657445.25,43913,8.5,73304.8,10.73,-40.15,-41.03,0,*42
1510657446.44,43914,8.5,73304.3,10.73,-40.53,-41.41,0,*41
1510657447.69,43915,8.5,73308.3,10.73,-40.59,-41.55,0,*4F
1510657448.95,43916,8.5,73308.5,10.71,-39.65,-40.41,0,*4B
1510657450.2,43917,8.5,73310.5,10.73,-40.41,-41.23,0,*45
1510657451.42,43918,8.5,73304.3,10.73,-39.23,-40.03,0,*43
1510657452.65,43919,8.5,73306.3,10.73,-39.59,-40.53,0,*4A
1510657453.87,43920,8.5,73304.5,10.73,-40.35,-41.23,0,*42
1510657455.09,43921,8.5,73308.8,10.73,-40.85,-41.73,0,*4D
1510657456.31,43922,8.5,73306.0,10.71,-40.65,-41.49,0,*4B
1510657457.59,43923,8.5,73310.0,10.71,-39.71,-40.41,0,*48
1510657458.8,43924,8.5,73306.0,10.73,-38.85,-39.65,0,*4F
1510657460.04,43925,8.5,73304.5,10.75,-39.03,-40.03,0,*49
1510657461.27,43926,8.5,73306.8,10.73,-39.65,-40.41,0,*4A
1510657462.5,43927,8.5,73310.0,10.75,-38.85,-39.65,0,*4A
1510657463.73,43928,8.5,73310.3,10.73,-39.79,-40.73,0,*48
1510657464.96,43929,8.5,73310.0,10.73,-41.35,-42.25,0,*4F
1510657466.17,43930,8.5,73308.5,10.73,-41.73,-42.57,0,*40
1510657467.42,43931,8.5,73304.3,10.73,-39.53,-40.41,0,*49
1510657468.65,43932,8.5,73304.3,10.73,-39.41,-40.15,0,*48
1510657469.92,43933,8.5,73304.3,10.75,-40.59,-41.55,0,*4D
1510657471.12,43934,8.5,73308.8,10.73,-40.03,-41.03,0,*40
1510657472.35,43935,8.5,73306.5,10.73,-39.65,-40.59,0,*41
1510657473.6,43936,8.5,73308.8,10.75,-39.15,-40.03,0,*4C
1510657474.85,43937,8.5,73310.0,10.73,-39.15,-39.97,0,*48
1510657476.11,43938,8.5,73304.8,10.75,-39.15,-39.85,0,*42
1510657477.33,43939,8.5,73306.8,10.75,-39.35,-40.15,0,*46
1510657478.52,43940,8.5,73306.8,10.77,-38.61,-39.47,0,*43
1510657479.79,43941,8.5,73304.8,10.79,-37.93,-38.67,0,*4D
1510657481.03,43942,8.5,73306.3,10.79,-38.35,-39.03,0,*4E
1510657482.3,43943,8.5,73310.5,10.79,-38.67,-39.41,0,*4E
1510657483.52,43944,8.5,73308.8,10.81,-38.17,-38.91,0,*45
1510657484.78,43945,8.5,73306.3,10.83,-38.11,-38.79,0,*46
1510657486.02,43946,8.5,73310.3,10.83,-38.23,-38.97,0,*44
1510657487.27,43947,8.5,73304.3,10.83,-40.03,-40.85,0,*44
1510657488.46,43948,8.5,73308.3,10.85,-40.53,-41.41,0,*41
1510657489.74,43949,8.5,73304.3,10.83,-40.41,-41.35,0,*46
1510657491.01,43950,8.5,73306.8,10.83,-40.79,-41.35,0,*45
1510657492.25,43951,8.5,73306.3,10.83,-40.21,-41.03,0,*4C
1510657493.5,43952,8.5,73310.3,10.81,-39.41,-40.09,0,*4E
1510657494.74,43953,8.5,73310.3,10.83,-38.97,-39.79,0,*4E
1510657495.98,43954,8.5,73304.3,10.83,-39.23,-39.85,0,*44
1510657497.23,43955,8.5,73310.3,10.83,-39.47,-40.21,0,*47
1510657498.49,43956,8.5,73306.8,10.83,-39.65,-40.59,0,*4B
1510657499.71,43957,8.5,73308.3,10.83,-39.65,-40.35,0,*40
1510657500.97,43958,8.5,73308.8,10.83,-40.85,-41.81,0,*41
1510657502.19,43959,8.5,73308.3,10.81,-39.29,-39.91,0,*44
1510657503.46,43960,8.5,73308.3,10.83,-38.23,-39.03,0,*4C
1510657504.7,43961,8.5,73310.5,10.85,-37.99,-38.67,0,*46
1510657505.92,43962,8.5,73308.8,10.85,-38.11,-38.85,0,*46
1510657507.14,43963,8.5,73310.3,10.85,-38.55,-39.15,0,*4F
1510657508.37,43964,8.5,73308.0,10.89,-39.09,-39.79,0,*46
1510657509.62,43965,8.5,73306.3,10.89,-39.15,-39.79,0,*4A
1510657510.86,43966,8.5,73304.5,10.91,-38.11,-38.73,0,*4E
1510657512.12,43967,8.5,73310.0,10.91,-37.93,-38.55,0,*4E
1510657513.36,43968,8.5,73308.3,10.93,-38.49,-39.29,0,*41
1510657514.58,43969,8.5,73308.8,10.97,-40.29,-41.49,0,*44
1510657515.85,43970,8.5,73308.8,10.91,-42.31,-43.29,0,*45
1510657517.04,43971,8.5,73310.8,10.93,-40.65,-41.61,0,*4B
1510657518.3,43972,8.5,73308.5,10.89,-39.79,-40.59,0,*4A
1510657519.54,43973,8.44,73304.0,10.91,-39.23,-39.85,0,*42
1510657520.79,43974,8.5,73308.0,10.91,-40.53,-41.67,0,*4F
1510657522.06,43975,8.5,73306.0,10.91,-39.53,-40.21,0,*43
1510657523.26,43976,8.5,73308.5,10.89,-39.09,-39.91,0,*43
1510657524.51,43977,8.5,73308.3,10.91,-39.29,-39.91,0,*49
1510657525.73,43978,8.44,73304.3,10.91,-40.03,-40.73,0,*42
1510657526.97,43979,8.5,73310.5,10.91,-39.29,-39.85,0,*42
1510657528.22,43980,8.44,73306.8,10.93,-38.49,-39.23,0,*4D
1510657529.49,43981,8.5,73310.3,10.91,-38.29,-38.91,0,*40
1510657530.74,43982,8.5,73308.0,10.95,-38.23,-38.97,0,*4B
1510657531.99,43983,8.5,73304.8,10.95,-38.23,-38.85,0,*49
1510657533.28,43984,8.5,73308.3,10.95,-38.79,-39.59,0,*41
1510657534.53,43985,8.5,73310.5,10.95,-40.15,-40.79,0,*49
1510657535.78,43986,8.44,73304.3,10.95,-38.29,-38.97,0,*45
1510657537.0,43987,8.5,73308.8,10.97,-38.17,-38.79,0,*4B
1510657538.23,43988,8.5,73312.0,10.97,-39.15,-39.91,0,*40
1510657539.44,43989,8.5,73308.8,10.99,-38.35,-39.09,0,*4D
1510657540.72,43990,8.44,73306.5,10.99,-38.49,-39.29,0,*4C
1510657541.94,43991,8.5,73308.5,11.01,-38.91,-39.47,0,*40
1510657543.14,43992,8.5,73310.3,11.01,-38.35,-39.09,0,*47
1510657544.39,43993,8.5,73308.5,10.99,-38.55,-39.29,0,*42
1510657545.64,43994,8.5,73310.5,11.01,-38.29,-38.91,0,*4C
1510657546.85,43995,8.5,73308.0,11.01,-38.17,-38.85,0,*45
1510657548.13,43996,8.5,73308.8,11.03,-37.63,-38.11,0,*45
1510657549.39,43997,8.44,73306.3,11.05,-37.63,-38.67,0,*43
1510657550.63,43998,8.44,73306.3,11.05,-38.61,-39.23,0,*40
1510657551.9,43999,8.5,73308.3,11.07,-37.81,-38.43,0,*45
1510657553.17,44000,8.44,73306.5,11.07,-37.81,-38.35,0,*4A
1510657554.43,44001,8.44,73308.5,11.13,-37.63,-38.29,0,*4F
1510657555.69,44002,8.44,73310.8,11.11,-38.29,-39.09,0,*4C
1510657556.93,44003,8.44,73308.0,11.13,-39.09,-39.71,0,*43
1510657558.17,44004,8.5,73308.3,11.13,-39.35,-40.09,0,*4A
1510657559.4,44005,8.5,73310.3,11.13,-38.55,-39.15,0,*4F
1510657560.67,44006,8.44,73306.5,11.13,-37.81,-38.49,0,*42
1510657561.93,44007,8.44,73306.0,11.15,-37.33,-37.93,0,*44
1510657563.17,44008,8.44,73310.0,11.15,-37.87,-38.61,0,*46
1510657564.46,44009,8.5,73308.8,11.15,-39.03,-39.79,0,*4D
1510657565.72,44010,8.44,73308.0,11.15,-38.91,-39.65,0,*42
1510657566.95,44011,8.5,73310.8,11.17,-38.61,-39.23,0,*4C
1510657568.21,44012,8.44,73306.5,11.17,-38.29,-39.03,0,*41
1510657569.47,44013,8.5,73310.0,11.19,-38.61,-39.23,0,*40
1510657570.68,44014,8.44,73310.5,11.17,-39.09,-39.85,0,*4A
1510657571.91,44015,8.44,73306.5,11.19,-38.35,-38.85,0,*4A
1510657573.18,44016,8.44,73306.8,11.19,-37.99,-38.55,0,*4D
1510657574.44,44017,8.44,73304.0,11.19,-39.41,-40.03,0,*4B
1510657575.7,44018,8.5,73308.8,11.19,-38.61,-39.23,0,*4B
1510657576.96,44019,8.44,73310.8,11.19,-38.35,-39.03,0,*49
1510657578.25,44020,8.5,73308.5,11.19,-38.79,-39.79,0,*46
1510657579.49,44021,8.44,73306.8,11.21,-39.71,-40.65,0,*46
1510657580.73,44022,8.44,73310.0,11.21,-40.85,-41.73,0,*46
1510657582.0,44023,8.44,73310.8,11.19,-40.41,-41.17,0,*46
1510657583.26,44024,8.44,73310.0,11.19,-38.61,-39.23,0,*44
1510657584.5,44025,8.44,73308.5,11.19,-37.87,-38.55,0,*42
1510657585.74,44026,8.44,73308.8,11.19,-38.17,-38.97,0,*49
1510657587.0,44027,8.44,73308.0,11.19,-38.55,-39.15,0,*45
1510657588.24,44028,8.44,73310.5,11.21,-38.49,-39.09,0,*41
1510657589.5,44029,8.44,73310.0,11.23,-38.29,-38.97,0,*42
1510657590.76,44030,8.44,73310.3,11.21,-39.29,-39.97,0,*48
1510657592.0,44031,8.44,73306.8,11.21,-40.09,-40.73,0,*41
1510657593.24,44032,8.44,73308.0,11.21,-38.49,-38.97,0,*4C
1510657594.45,44033,8.44,73306.8,11.21,-38.35,-39.09,0,*40
1510657595.7,44034,8.44,73308.5,11.21,-37.81,-38.35,0,*49
1510657596.96,44035,8.44,73308.0,11.23,-38.11,-38.85,0,*47
1510657598.25,44036,8.44,73308.0,11.23,-38.29,-38.91,0,*4A
1510657599.46,44037,8.44,73308.3,11.25,-38.85,-39.65,0,*41
1510657600.71,44038,8.44,73308.0,11.25,-38.67,-39.29,0,*4A
1510657601.94,44039,8.44,73308.3,11.25,-39.47,-40.21,0,*4E
1510657603.14,44040,8.44,73304.3,11.25,-38.05,-38.73,0,*4F
1510657604.37,44041,8.44,73308.8,11.25,-38.29,-38.85,0,*49
1510657605.59,44042,8.44,73310.3,11.25,-38.11,-38.73,0,*48
1510657606.85,44043,8.44,73308.5,11.27,-38.43,-39.15,0,*4D
1510657608.11,44044,8.44,73310.3,11.27,-39.15,-40.03,0,*41
1510657609.36,44045,8.44,73308.0,11.27,-40.53,-41.35,0,*48
1510657610.63,44046,8.44,73310.3,11.27,-39.59,-40.35,0,*4E
1510657611.83,44047,8.44,73308.5,11.25,-39.09,-39.85,0,*4D
1510657613.12,44048,8.44,73308.8,11.27,-37.69,-38.23,0,*45
1510657614.38,44049,8.44,73308.0,11.27,-38.17,-38.79,0,*4D
1510657615.61,44050,8.44,73308.0,11.27,-38.17,-38.85,0,*46
1510657616.87,44051,8.44,73308.8,11.27,-39.35,-40.21,0,*47
1510657618.13,44052,8.44,73310.3,11.27,-39.85,-40.59,0,*40
1510657619.33,44053,8.44,73310.8,11.25,-40.65,-41.49,0,*43
1510657620.55,44054,8.44,73310.3,11.25,-40.03,-40.79,0,*46
1510657621.76,44055,8.44,73310.0,11.25,-42.37,-43.41,0,*4A
1510657623.0,44056,8.44,73310.8,11.23,-42.51,-43.49,0,*47
1510657624.24,44057,8.44,73310.3,11.21,-42.45,-43.49,0,*41
1510657625.5,44058,8.44,73308.5,11.19,-43.55,-44.41,0,*4A
1510657626.78,44059,8.44,73308.3,11.15,-42.57,-43.29,0,*4D
1510657628.04,44060,8.44,73308.5,11.13,-42.95,-44.01,0,*42
1510657629.3,44061,8.44,73308.5,11.07,-43.15,-44.01,0,*4F
1510657630.55,44062,8.44,73310.0,11.07,-41.11,-41.93,0,*44
1510657631.79,44063,8.44,73312.8,11.07,-40.35,-41.17,0,*4E
1510657633.03,44064,8.44,73312.0,11.05,-40.15,-40.79,0,*40
1510657634.32,44065,8.44,73308.8,11.07,-39.23,-39.97,0,*46
1510657635.6,44066,8.44,73308.0,11.07,-38.91,-39.53,0,*45
1510657636.86,44067,8.44,73310.5,11.11,-38.49,-38.97,0,*4F
1510657638.15,44068,8.44,73310.0,11.11,-37.99,-38.67,0,*4D
1510657639.4,44069,8.44,73310.3,11.11,-37.99,-38.73,0,*49
1510657640.66,44070,8.44,73310.5,11.13,-37.99,-38.91,0,*4F
1510657641.87,44071,8.44,73310.5,11.13,-38.35,-39.09,0,*47
1510657643.13,44072,8.44,73310.0,11.15,-38.49,-39.47,20,*71
1510657644.38,44073,8.44,73308.0,11.15,-39.65,-40.47,19,*7B
1510657645.65,44074,8.44,73312.0,11.15,-40.03,-40.97,18,*7E
1510657646.86,44075,8.44,73312.0,11.13,-38.35,-39.09,20,*71
1510657648.12,44076,8.44,73310.8,11.15,-38.43,-39.03,19,*75
1510657649.37,44077,8.44,73308.8,11.17,-39.79,-40.47,18,*71
1510657650.59,44078,8.44,73310.0,11.17,-39.65,-40.47,17,*7C
1510657651.86,44079,8.44,73308.5,11.17,-39.97,-40.85,16,*7F
1510657653.13,44080,8.44,73310.3,11.17,-39.79,-40.29,15,*7C
1510657654.39,44081,8.44,73310.5,11.15,-38.79,-39.47,14,*79
1510657655.63,44082,8.44,73308.8,11.17,-38.79,-39.47,13,*7F
1510657656.89,44083,8.44,73312.5,11.19,-38.35,-39.15,12,*7E
1510657658.16,44084,8.44,73314.5,11.17,-38.29,-39.03,11,*7E
1510657659.38,44085,8.44,73314.5,11.17,-37.87,-38.61,10,*70
1510657660.61,44086,8.44,73312.0,11.19,-38.35,-38.97,9,*4A
1510657661.85,44087,8.44,73310.8,11.21,-37.93,-38.35,8,*4A
1510657663.06,44088,8.44,73312.8,11.21,-37.75,-38.35,7,*42
1510657664.32,44089,8.44,73310.0,11.23,-38.43,-39.03,6,*4E
1510657665.6,44090,8.44,73314.0,11.23,-38.67,-39.29,5,*4B
1510657666.86,44091,8.44,73314.3,11.23,-38.29,-38.61,4,*4C
1510657668.12,44092,8.44,73308.8,11.25,-37.69,-38.49,3,*4F
1510657669.38,44093,8.44,73308.3,11.27,-37.63,-38.17,2,*4C
1510657670.57,44094,8.44,73308.5,11.25,-38.73,-39.47,1,*40
1510657671.81,44095,8.44,73312.5,11.27,-38.17,-38.85,0,*4F
1510657673.05,44096,8.44,73308.8,11.27,-39.35,-40.15,20,*79
1510657674.33,44097,8.44,73312.3,11.27,-39.53,-40.21,19,*75
1510657675.6,44098,8.44,73312.8,11.27,-39.79,-40.73,18,*74
1510657676.82,44099,8.44,73314.5,11.25,-39.09,-39.65,17,*76
1510657678.06,44100,8.44,73310.0,11.25,-38.61,-39.23,20,*7E
1510657679.31,44101,8.44,73314.8,11.27,-38.67,-39.35,19,*76
1510657680.57,44102,8.44,73312.5,11.27,-38.61,-39.03,18,*77
1510657681.8,44103,8.44,73312.8,11.29,-38.67,-39.35,17,*74
1510657683.02,44104,8.44,73314.0,11.29,-37.87,-38.35,16,*72
1510657684.26,44105,8.44,73312.5,11.29,-38.17,-38.67,15,*71
1510657685.49,44106,8.44,73312.3,11.29,-38.05,-38.67,14,*70
1510657686.74,44107,8.44,73310.5,11.31,-39.09,-39.65,13,*71
1510657687.95,44108,8.44,73310.0,11.29,-38.35,-38.97,12,*74
1510657689.22,44109,8.44,73310.8,11.31,-38.17,-38.91,11,*79
1510657690.49,44110,8.44,73308.0,11.31,-38.49,-39.09,10,*7B
1510657691.75,44111,8.44,73314.5,11.35,-38.11,-38.67,9,*42
1510657693.01,44112,8.44,73310.0,11.35,-38.29,-38.91,8,*42
1510657694.27,44113,8.44,73312.0,11.35,-38.49,-39.23,7,*42
1510657695.51,44114,8.44,73314.3,11.35,-39.65,-40.41,6,*41
1510657696.78,44115,8.44,73314.8,11.35,-39.41,-40.09,5,*49
1510657697.99,44116,8.44,73314.3,11.35,-38.85,-39.47,4,*46
1510657699.22,44117,8.44,73312.8,11.35,-37.93,-38.43,3,*4D
1510657700.49,44118,8.44,73312.5,11.35,-39.41,-40.21,2,*49
1510657701.69,44119,8.44,73312.8,11.35,-40.65,-41.29,1,*4A
1510657702.92,44120,8.44,73312.0,11.35,-38.23,-38.73,0,*4D
1510657704.18,44121,8.44,73312.8,11.35,-38.23,-38.67,0,*49
1510657705.43,44122,8.44,73312.5,11.37,-38.73,-39.29,0,*46
1510657706.69,44123,8.44,73312.5,11.35,-38.91,-39.71,0,*44
1510657707.96,44124,8.44,73312.3,11.37,-39.85,-40.59,0,*41
1510657709.17,44125,8.44,73312.5,11.35,-38.85,-39.47,0,*42
1510657710.43,44126,8.44,73308.0,11.35,-38.91,-39.59,0,*4B